Overview Statistics Trail Chart Weather Telemetry Raw packets
 

This is the latest recevied weather packets stored in our database for station/object K1TTC. If no packets are shown the sender has not sent any weather packets the latest 10 day(s).

<< 35 36 37 38 39 40 41 >>
Time Temp. Humidity Pressure Rain* Wind** Luminosity Snow
1788090664 15.56° C 75% 1022.1 hPa 0 mm - 67 W/m² -
1788090065 15° C 75% 1022.2 hPa 0 mm - 62 W/m² -
1788089464 15° C 75% 1022.2 hPa 0 mm - 42 W/m² -
1788088870 15° C 75% 1022.3 hPa 0 mm - 30 W/m² -
1788088264 14.44° C 74% 1022.1 hPa 0 mm - 49 W/m² -
1788087664 14.44° C 74% 1022 hPa 0 mm - 58 W/m² -
1788087064 14.44° C 74% 1022.2 hPa 0 mm - 26 W/m² -
1788086463 14.44° C 74% 1022.1 hPa 0 mm - 11 W/m² -
1788085863 14.44° C 74% 1022 hPa 0 mm - 9 W/m² -
1788085262 14.44° C 75% 1022 hPa 0 mm - 7 W/m² -
1788084661 14.44° C 75% 1022.2 hPa 0 mm - 0 W/m² -
1788084061 14.44° C 75% 1022.1 hPa 0 mm - 0 W/m² -
1788083467 14.44° C 75% 1022.2 hPa 0 mm - 0 W/m² -
1788082852 14.44° C 74% 1022.1 hPa 0 mm - 0 W/m² -
1788082260 14.44° C 75% 1022.1 hPa 0 mm - 0 W/m² -
1788081657 14.44° C 75% 1022.1 hPa 0 mm - 0 W/m² -
1788081054 14.44° C 74% 1022.3 hPa 0 mm - 0 W/m² -
1788080454 14.44° C 74% 1022.3 hPa 0 mm - 0 W/m² -
1788079855 14.44° C 74% 1022.5 hPa 0 mm - 0 W/m² -
1788079253 13.89° C 74% 1022.6 hPa 0 mm - 0 W/m² -
1788078652 13.89° C 74% 1022.7 hPa 0 mm - 0 W/m² -
1788078053 13.89° C 74% 1022.8 hPa 0 mm - 0 W/m² -
1788077453 13.89° C 74% 1022.7 hPa 0 mm - 0 W/m² -
1788076852 13.89° C 73% 1022.7 hPa 0 mm - 0 W/m² -
1788076248 13.89° C 73% 1022.6 hPa 0 mm - 0 W/m² -

* Rain latest hour (hover to see other rain measurements)
** Current wind speed in m/s (hover to see current wind gust speed)